Regional Weather Roundup
Issued by NWS Wakefield, VA

Home | Current Version | Previous Version | Graphics & Text | Print | Product List | Glossary On
Versions: 1 2 3 4 5 6 7 8 9 10 11 12 13 14 15 16 17 18 19 20 21 22 23 24 25 26 27
000
ASUS41 KAKQ 241415
RWRAKQ

REGIONAL WEATHER ROUNDUP
NATIONAL WEATHER SERVICE WAKEFIELD VA
1000 AM EDT TUE APR 24 2018

Note: "fair" indicates few or no clouds below 12,000 feet with no
significant weather and/or obstructions to visibility. * = Denotes
station may not report precipitation (e.g., rain,snow,etc.),
thunder or fog.

VAZ042-051-052>054-056-241500-
NORTHERN VIRGINIA

CITY           SKY/WX    TMP DP  RH WIND       PRES   REMARKS
WASH NATIONAL  CLOUDY    59  45  59 SE9       30.27F
DULLES         CLOUDY    58  45  62 E17       30.24F
FORT BELVOIR   NOT AVBL
QUANTICO       LGT RAIN  59  49  69 SE17G23   30.25F
FREDERICKSBRG* RAIN      56  51  82 E7        30.22F
STAFFORD*      DRIZZLE   56  50  80 E12G17    30.26F
WARRENTON      DRIZZLE   57  45  65 E6        30.23S
CULPEPER*      RAIN      55  48  75 E3        30.24S
MANASSAS*      CLOUDY    58  46  64 SE10G20   30.24F
LEESBURG*      CLOUDY    57  46  67 SE6       30.26F
WINCHESTER     LGT RAIN  46  45  93 CALM      30.25F
FRONT ROYAL*   CLOUDY    48  46  93 N3        30.23S
LURAY*         LGT RAIN  50  46  87 NE3       30.21S
$$

VAZ048-049-060>072-079>083-241500-
CENTRAL AND SOUTH CENTRAL VIRGINIA

CITY           SKY/WX    TMP DP  RH WIND       PRES   REMARKS
RICHMOND       LGT RAIN  56  56 100 E14G22    30.18F FOG
CHESTERFIELD*  RAIN      55  54  96 E8        30.17F
PETERSBURG*    LGT RAIN  56  53  91 E9G20     30.16F
HANOVER        LGT RAIN  55  54  96 E6        30.21F FOG
TAPPAHANNOCK*  DRIZZLE   59  52  77 E9G16     30.23S
QUINTON*       CLOUDY    55  55  97 MISG      30.19F
CHARLOTTSVILLE LGT RAIN  52  50  93 NE10      30.20F FOG
GORDONSVILLE*  CLOUDY    52  52 100 NE6       30.21S
ORANGE*        RAIN      52  50  93 CALM      30.22S
LOUISA*        LGT RAIN  53  51  94 E9G20     30.24F FOG
BUMPASS*       CLOUDY    53  51  95 NE7       30.20F
FARMVILLE*     RAIN     N/A N/A N/A NE12      30.12F
CREWE*         CLOUDY    55  55 100 E7G16     30.13S
FORT PICKETT*  CLOUDY    55  55 100 E12G17    30.13F
CHASE CITY*    CLOUDY    55  55 100 E5G20     30.07F
CLARKSVILLE*   CLOUDY    55  55 100 E8G22     30.06S
SOUTH HILL*    CLOUDY    56  56 100 E3        30.16S
LAWRENCEVILLE* CLOUDY    56  56  97 E8        30.12S
EMPORIA*       LGT RAIN  55  55 100 E14G21    30.14F
$$

VAZ088>098-241500-
SOUTHEAST VIRGINIA

CITY           SKY/WX    TMP DP  RH WIND       PRES   REMARKS
NORFOLK        RAIN      58  54  86 E12G21    30.19F
VIRGINIA BEACH CLOUDY    56  53  90 E15G25    30.19F
NORFOLK NAVAL  LGT RAIN  58  53  84 SE13G21   30.20F
WEST POINT*    CLOUDY    57  51  80 E16G22    30.23S
SALUDA*        CLOUDY    58  51  77 SE8       30.22F
NEWPORT NEWS   LGT RAIN  56  52  86 E13       30.21S FOG
LANGLEY AFB    LGT RAIN  56  53  91 E17G25    30.21S FOG
FORT EUSTIS    NOT AVBL
WILLIAMSBURG*  FAIR      57  54  88 E15G24    30.20S
HR EXEC AP*    CLOUDY    57  55  93 E9G16     30.19S FOG
FRANKLIN*      LGT RAIN  57  56  98 E15G21    30.17S
US460-WAKEFLD  LGT RAIN  57  56  96 E9        30.17S FOG
$$

VAZ020-022-025-037-045-241500-
WEST CENTRAL AND SOUTHWEST VIRGINIA

CITY           SKY/WX    TMP DP  RH WIND       PRES   REMARKS
STAUNTON*      HVY RAIN  51  48  91 E6        30.19F
WAYNESBORO*    CLOUDY    50  50  99 E5        30.16F
HOT SPRINGS VA RAIN      41  41 100 E16G23    30.09S VSB<1/4
LYNCHBURG      LGT RAIN  50  49  96 NE15      30.09F FOG
DANVILLE       CLOUDY    55  55 100 E9G18     30.04S
SOUTH BOSTON*  CLOUDY    56  55  95 E8        30.06S
MARTINSVILLE   RAIN      50  49  97 N5        30.05F
ROANOKE        LGT RAIN  53  49  86 NE12      30.09F
BLACKSBURG     RAIN      49  48  97 E17       30.08S
DUBLIN*        LGT RAIN  49  49  97 E10       30.04F
MARION*        LGT RAIN  49  49  99 E13       30.02F
HILLSVILLE*    RAIN      48  47  97 E10G18    30.00R
RICHLANDS*     CLOUDY    52  19  27 SE20G30   29.95S
WISE*          PTSUNNY   55  48  76 E6G16     29.94S
ABINGDON*      CLOUDY    57  51  79 E15       29.94S
$$

MDZ021>025-VAZ099-100-241500-
SOUTHERN MARYLAND AND THE DELMARVA PENINSULA

CITY           SKY/WX    TMP DP  RH WIND       PRES   REMARKS
PATUXENT RIVER CLOUDY    59  50  72 E14       30.25F
BAY BRIDGE APT FAIR      59  46  63 SE17G23   30.28S
LEONARDTOWN    PTSUNNY   57  46  67 E12G20    30.27S
DOVER          NOT AVBL
GEORGETOWN     FAIR      60  47  61 SE17G25   30.32S
EASTON         CLOUDY    61  46  59 SE12G18   30.32F
CAMBRIDGE      SUNNY     61  46  59 E18       30.27S
SALISBURY      FAIR      61  48  62 SE16      30.28F
TANGIER        CLOUDY    61  52  72 E13G21    30.24F
OCEAN CITY     FAIR      55  50  83 E13       30.31F
WALLOPS ISLAND CLOUDY    59  49  69 E18G28    30.28S
ACCOMACK*      FAIR      59  48  68 SE13G21   30.25S
$$

NCZ012>017-030>032-241500-
NORTH CENTRAL AND EASTERN NORTH CAROLINA

CITY           SKY/WX    TMP DP  RH WIND       PRES   REMARKS
ROANOKE RAPIDS RAIN      59  59 100 E5        30.11S
RALEIGH        LGT RAIN  59  58  96 E21G33    29.99S FOG
ELIZABETH CITY RAIN      59  58  96 E16G24    30.16F FOG
AHOSKIE*       RAIN      58  58 100 E10       30.12F
EDENTON*       DRIZZLE   62  60  94 E9        30.14F
CURRITUCK*     NOT AVBL
KILL DEVIL HLS LGT RAIN  55  54  95 E13G20    30.15F
MANTEO         CLOUDY    58  56  93 SE14G21   30.16F
CAPE HATTERAS  LGT RAIN  64  60  87 SE29G39   30.12F FOG
TARBORO*       NOT AVBL
GOLDSBORO      LGT RAIN  60  58  93 E18G25    30.02F FOG
WASHINGTON     HVY RAIN  60  58  96 E14       30.09F
GREENVILLE     RAIN      59  59 100 E10       30.09F
NEW BERN       RAIN      60  59  96 E16G26    30.05F FOG
WILMINGTON     RAIN      62  60  93 SE9       29.98R FOG
$$

VAZ048-241500-
ELSEWHERE

CITY           SKY/WX    TMP DP  RH WIND       PRES   REMARKS
HARRISBURG PA  PTSUNNY   59  41  51 SE13      30.29F
BALTIMORE      CLOUDY    57  45  64 E13       30.28F
ANNAPOLIS      CLOUDY    60  50  69 SE13      30.28F
ANDREWS AFB    FAIR      58  46  64 E13       30.25F
PHILADELPHIA   PTSUNNY   61  43  51 SE12      30.35F
HENDERSON NC   LGT RAIN  55  53  92 E17G26    30.04F
GREENSBORO     LGT RAIN  55  55 100 NE9       29.97F VSB 1
ROCKY MOUNT    RAIN      58  57  97 E12G20    30.06F FOG
$$

VAZ100-241500-
MARINE

STATION/POSITION TIME  TEMP    WIND        PRES    WAVE   SWELL
                       AIR SEA DIR/SP/G            HT/PER HT/PER
                 (UTC) (F)     (DEG/KT/KT) (MB)    (FT/S) (FT/S)
BRANDYWINE LGT   1342   54     120/ 21/ 23 1027.1F
CAPE MAY NJ      1348   54 51  110/ 14/ 22 1026.6F
LEWES DE         1348      51  120/ 13/ 17 1026.6F
15NM E FENWICK I 1350   50 47   80/ 16/ 19 1026.9F   3/ 5   2/ 8
OCEAN-CITY-INLET 1348   53 51  120/ 10/ 16 1026.9F
WACHAPREAGUE VA  1348   56 56  110/ 14/ 18 1024.5F
GOOSES REEF MD   1400   57     120/ 12/ 17 1025.3
COVE POINT MD    1348   57     140/ 16/ 19 1025.2F
SOLOMONS ISLAND  1348   56 53  100/ 13/ 18 1024.2F
BISHOPS HEAD MD  1348   59 56  100/ 15/ 20 1024.9F
PINEY POINT MD   1348          120/ 14/ 17   N/A
POTOMAC MD       1400   56 53  120/ 14/ 16 1025.3    2/ 3
CAMBRIDGE MD     1348   59 54              1025.8F
LEWISETTA VA     1348   55 54  120/ 12/ 14 1024.1F
RAPPAHANNOCK LGT 1348          100/ 23/ 26 1024.1F
STINGRAY PT      1400   57 55  140/ 16/ 17 1024.9    3/ 3
YORK RVR RNG VA  1348   57     120/ 22/ 27 1023.2F
YORKTOWN VA      1348   56 56  120/ 17/ 20 1022.5F
DOMINION TERM VA 1348   58     100/ 13/ 18 1022.7F
KIPTOPEKE VA     1348      55  110/ 15/ 20   N/A
CAPE HENRY VA    1348   56     100/ 19/ 21   N/A
WILLOUBY STN VA  1348   57     110/ 17/ 21 1022.3F
S CRANEY ISL VA  1348   58     110/ 15/ 19 1022.1F
CAPE HENRY BUOY  1400      51                N/A     6/ 8
1ST LANDING BUOY 1400   55 53  130/ 17/ 19 1023.1    3/ 4
64NM E OF VA BCH 1350   55 50  110/ 14/ 16 1024.0F   7/ 8   5/ 8
DUCK PIER NC     1348   56 54  110/ 21/ 24 1021.3S
44100 DUCK FRF   1345      51                N/A     7/ 8
44056 DUCK FRF   1400      52                N/A     6/ 8
OREGON INLET NC  1336   56 54   90/ 11/ 16 1021.0F
HATTERAS NC      1348      62  120/ 21/ 28 1019.3F
DIAMOND SHLS NC  1400   67 72  130/ 31/ 39 1019.9
$$




USA.gov is the U.S. government's official web portal to all federal, state and local government web resources and services.